This is the latest recevied weather packets stored in our database for station/object KB4RFE. If no packets are shown the sender has not sent any weather packets the latest 1 day(s).
| Time | Temp. | Humidity | Pressure | Rain* | Wind** | Luminosity | Snow |
|---|---|---|---|---|---|---|---|
| 1778042091 | 21.11° C | 76% | 1019.5 hPa | 0 mm | - | 0 W/m² | - |
| 1778041789 | 21.11° C | 75% | 1019.4 hPa | 0 mm | - | 0 W/m² | - |
| 1778041186 | 21.11° C | 75% | 1019.5 hPa | 0 mm | - | 0 W/m² | - |
| 1778040884 | 21.11° C | 75% | 1019.4 hPa | 0 mm | - | 0 W/m² | - |
| 1778040581 | 21.11° C | 76% | 1019.4 hPa | 0 mm | - | 0 W/m² | - |
| 1778039974 | 20.56° C | 76% | 1019.7 hPa | 0 mm | - | 0 W/m² | - |
| 1778039672 | 20.56° C | 76% | 1019.4 hPa | 0 mm | - | 0 W/m² | - |
| 1778039368 | 20.56° C | 76% | 1019.6 hPa | 0 mm | - | 0 W/m² | - |
| 1778038460 | 20.56° C | 75% | 1019.5 hPa | 0 mm | - | 0 W/m² | - |
| 1778038157 | 21.11° C | 74% | 1019.3 hPa | 0 mm | - | 0 W/m² | - |
| 1778037854 | 21.11° C | 74% | 1019.6 hPa | 0 mm | - | 0 W/m² | - |
| 1778037550 | 20.56° C | 72% | 1019.5 hPa | 0 mm | - | 0 W/m² | - |
| 1778037248 | 21.11° C | 72% | 1019.3 hPa | 0 mm | - | 0 W/m² | - |
| 1778036945 | 21.11° C | 72% | 1019.4 hPa | 0 mm | - | 0 W/m² | - |
| 1778036036 | 20.56° C | 69% | 1019.9 hPa | 0 mm | - | 0 W/m² | - |
| 1778035733 | 20.56° C | 72% | 1020 hPa | 0 mm | - | 0 W/m² | - |
| 1778035430 | 20.56° C | 74% | 1019.9 hPa | 0 mm | - | 0 W/m² | - |
| 1778035126 | 20.56° C | 76% | 1019.9 hPa | 0 mm | - | 0 W/m² | - |
| 1778034520 | 20.56° C | 74% | 1020.2 hPa | 0 mm | - | 0 W/m² | - |
| 1778034218 | 20.56° C | 73% | 1020.1 hPa | 0 mm | - | 0 W/m² | - |
| 1778033916 | 20.56° C | 72% | 1019.9 hPa | 0 mm | - | 0 W/m² | - |
| 1778033612 | 20.56° C | 72% | 1019.9 hPa | 0 mm | - | 0 W/m² | - |
| 1778033309 | 20.56° C | 73% | 1019.6 hPa | 0 mm | - | 0 W/m² | - |
| 1778033007 | 20.56° C | 73% | 1019.6 hPa | 0 mm | - | 0 W/m² | - |
| 1778032704 | 20.56° C | 72% | 1019.6 hPa | 0 mm | - | 0 W/m² | - |
* Rain latest hour (hover to see other rain measurements)
** Current wind speed in m/s (hover to see current wind gust speed)